STARLINK-1870 (47156 NORAD) Tracking and Keplerian Element Data

This shows tracking and keplerian element data for the satellite.

Feedback or suggestion? Click here.




ElementValue
Catalog47156
NameSTARLINK-1870
Epoch Orbit1589
Epoch Day60.91667824
Epoch Year2021
RAAN239.3429
Inclination53.0509
Eccentricity0.0005249
Argument of Perigee298.83
Mean Anonmoly271.879
Mean Motion15.46244537
Decay Rate-0.00547115
L11 47156U 20088AL 21060.91667824 -.00547115 00000-0 -11714-1 0 9993
L22 47156 53.0509 239.3429 0005249 298.8300 271.8790 15.46244537 15897

Live tracking and technical data element details for STARLINK-1870 (NORAD 47156). STARLINK-1870 can be tracked NOW for your location showing map with azimuth and elevation plus other details from your city location.

Track the satellite on the map from your city or location and see movement details for azimuth, elevation, latitude, longitude, range, height, and movement on the map or in text.







IsCatalogInMostPopularTable: catalog: 47156, numindb: 32
Update: records affected: 1



GetName: 47156 STARLINK-1870

Hit Count: updated at: Tue, 02 Mar 2021 13:45:09 GMT